Temperature
17 17 17 17 17 17 17 17 17 17 17 17 17 17 17 17 17 17 17 17 17 17 17 17 17 16 16 16 16 16 16 15 15 15 15 15 14 14 14 14 14 14 14
16 16 17 17 17 17 17 17 17 17 17 17 17 17 17 17 17 17 17 17 17 17 17 17 17 16 16 16 16 16 16 15 15 15 15 14 14 14 14 14 14 13 14
16 16 16 17 17 17 17 17 17 17 17 17 17 17 17 17 17 17 17 17 17 17 17 17 16 16 16 16 16 16 15 15 15 15 14 13 13 14 14 14 14 13 13
16 16 16 17 17 17 17 17 17 17 17 17 17 17 17 17 17 17 17 17 17 17 16 16 16 16 16 16 16 15 15 15 15 14 14 13 13 13 13 13 13 13 13
15 16 16 16 16 16 16 17 17 16 16 16 16 16 16 16 16 16 16 16 16 16 16 16 16 16 16 15 15 15 15 15 15 14 13 13 13 13 13 13 13 13 13
15 15 16 16 16 16 16 16 16 16 16 16 16 16 16 16 16 16 16 16 16 16 16 16 16 15 15 15 15 15 15 15 14 13 13 13 13 13 13 13 12 12 12
15 15 15 16 16 16 16 16 16 16 16 16 16 16 16 16 16 16 16 16 16 16 16 16 15 15 15 15 15 15 15 15 14 13 13 13 13 13 13 12 12 12 12
14 15 15 15 16 16 16 16 16 16 16 16 16 16 15 15 15 15 15 16 15 15 15 15 15 15 15 15 15 15 14 14 13 13 13 12 13 12 12 12 12 12 12
14 14 15 15 15 15 16 16 16 16 16 16 15 15 15 15 15 15 15 15 15 15 15 15 15 15 15 14 14 14 14 14 13 13 12 12 12 12 12 12 12 12 11
13 14 14 14 14 15 15 15 15 15 15 15 15 15 15 15 15 15 15 15 15 15 15 15 15 15 15 14 14 14 14 13 13 12 12 12 12 12 12 12 12 11 11
13 13 13 14 14 14 14 14 15 15 15 15 15 15 15 15 15 14 14 15 14 14 14 14 14 14 14 14 14 14 13 13 12 12 12 12 12 12 12 12 11 11 11
12 13 13 13 13 13 14 14 14 14 14 14 14 14 14 14 14 14 14 14 14 14 14 14 14 14 14 13 13 13 13 13 12 12 12 12 12 12 12 11 11 11 11
11 12 12 12 13 13 13 13 13 13 14 14 14 14 14 14 14 14 14 14 14 14 13 13 13 13 13 13 13 13 13 12 12 12 12 12 12 12 12 11 11 11 11
11 11 11 12 12 12 12 12 13 13 13 13 13 13 13 13 13 13 13 13 13 13 13 13 13 13 13 13 13 13 13 12 12 12 12 12 12 12 11 11 11 11 11
11 11 11 11 12 12 12 12 12 12 12 12 12 12 12 12 12 13 13 13 13 13 13 13 13 13 12 12 13 13 12 12 12 12 12 12 12 12 11 11 11 11 11
10 11 11 11 11 11 11 11 11 11 12 11 12 12 12 12 12 12 12 12 12 12 12 12 12 12 12 12 12 12 12 12 12 12 11 11 11 11 11 11 11 11 11
10 10 10 10 11 11 11 11 11 11 11 11 11 11 11 11 11 11 11 11 12 12 12 12 12 12 12 12 12 12 12 12 12 11 11 11 11 11 11 11 11 11 10
9 10 10 10 10 10 10 10 10 10 10 10 10 11 11 11 11 11 11 11 11 11 11 11 11 11 11 12 12 11 11 11 11 11 11 11 11 10 11 11 11 11 10
9 9 9 9 10 9 10 10 10 10 10 10 10 10 10 10 10 10 10 10 11 11 11 11 11 11 11 11 11 11 11 11 11 11 11 11 10 10 10 10 10 10 10
9 9 9 9 9 9 9 9 9 9 9 9 9 9 10 10 10 10 10 10 10 10 10 10 11 11 10 10 11 10 11 10 11 10 10 10 10 10 10 10 10 10 10
9 9 9 9 9 8 8 8 9 9 9 9 9 9 9 9 9 9 9 9 10 10 10 10 10 10 10 10 10 10 10 10 10 10 10 10 10 10 10 10 10 10 10
8 8 8 8 8 8 8 8 8 8 8 8 8 8 8 8 9 9 9 9 9 9 9 9 9 9 9 9 9 9 9 9 10 10 10 10 10 10 10 10 10 10 10
8 8 8 8 8 8 7 7 8 8 8 8 8 8 8 8 8 8 8 8 8 8 9 9 9 9 9 9 9 9 9 10 9 9 10 10 10 10 10 10 9 9 9
8 8 8 8 8 7 7 7 7 7 7 7 7 7 7 8 7 8 8 8 8 8 8 8 8 8 8 8 9 9 9 9 9 9 9 9 9 10 10 9 9 9 9
7 8 8 7 7 7 7 7 7 7 7 7 7 7 7 7 7 7 7 7 7 7 8 8 8 8 8 8 8 8 9 9 9 9 9 9 9 9 9 9 9 9 9
7 7 7 7 7 7 6 6 6 6 6 6 6 6 6 7 7 7 7 7 7 7 7 8 8 8 8 8 8 8 8 9 9 9 9 8 8 8 9 9 9 9 9
Wind_Speed
7 7 5 5 1 1 2 4 5 6 7 8 10 11 12 13 13 13 12 12 12 12 12 12 12 13 13 13 12 12 11 11 11 11 12 12 11 11 11 11 10 11 13
8 6 4 5 2 1 1 3 4 5 6 7 9 10 11 12 12 12 12 12 12 12 12 12 13 13 13 13 12 12 11 11 11 11 11 10 10 11 11 10 9 10 13
8 6 4 5 3 2 1 1 3 4 5 6 8 9 10 11 12 12 12 12 12 12 12 13 13 14 14 13 13 12 12 12 12 11 9 8 10 11 11 11 11 12 13
8 6 5 6 5 3 2 1 1 2 4 5 7 8 9 11 12 12 12 12 12 12 12 12 13 14 14 14 13 13 13 12 11 9 7 7 9 11 11 11 12 12 12
7 7 7 8 6 4 3 2 1 2 3 4 6 7 8 10 11 12 13 13 13 12 12 12 13 14 14 14 14 13 13 12 11 8 6 7 8 10 11 12 12 11 11
7 7 7 8 7 6 4 3 3 2 3 4 5 6 7 9 11 11 12 13 13 13 13 12 12 13 14 14 14 14 13 13 11 8 7 7 7 11 11 12 11 11 11
7 7 7 7 7 7 5 4 3 2 2 4 5 6 7 8 9 11 11 13 14 14 14 14 13 13 14 15 15 14 13 12 9 7 7 7 8 11 11 11 11 11 11
6 7 6 5 6 7 6 5 4 3 3 4 5 6 7 8 9 10 12 12 14 15 14 14 14 14 14 15 16 15 14 12 9 8 8 7 9 10 11 11 11 10 10
6 6 6 6 5 5 5 6 6 5 5 4 5 6 7 8 9 10 11 13 13 14 15 15 15 15 15 15 16 15 14 12 10 8 8 8 10 10 10 11 10 9 10
6 6 6 6 6 5 5 5 5 5 5 5 5 5 7 9 10 11 11 12 12 13 15 15 15 16 16 16 16 16 15 12 10 9 8 8 11 11 11 10 10 10 10
6 6 6 6 6 6 6 5 5 5 5 5 4 3 5 7 9 10 11 11 12 13 14 15 16 17 16 16 16 16 15 11 10 9 8 10 11 11 11 11 11 10 10
8 7 6 6 6 6 5 5 4 4 4 5 5 4 4 6 7 8 9 11 13 13 14 16 16 17 15 13 14 16 12 12 10 9 9 11 12 12 12 12 12 11 10
8 7 7 6 6 5 4 4 4 4 4 5 5 6 5 4 5 6 6 8 10 12 11 12 14 14 13 11 11 13 12 11 9 9 10 13 13 13 13 13 13 12 11
8 7 7 6 5 5 5 4 4 3 3 4 5 6 4 3 4 4 5 6 7 7 8 9 9 12 13 13 13 12 12 10 9 9 10 14 14 13 14 13 13 12 12
8 8 7 6 5 4 4 4 4 4 4 4 5 5 5 4 5 5 5 6 7 7 8 8 10 11 11 12 12 12 12 12 12 11 10 13 14 14 14 14 14 13 12
7 7 7 6 5 4 4 4 4 4 4 5 5 6 7 6 6 5 6 6 7 7 8 9 11 10 10 9 11 12 12 12 12 12 11 13 14 14 15 15 14 14 13
7 6 6 6 5 5 5 5 4 4 4 5 5 7 7 7 7 6 6 6 6 7 8 8 10 9 9 9 11 12 10 11 12 13 12 12 13 14 14 15 15 14 14
7 6 5 4 5 5 5 5 4 5 5 5 5 6 7 8 8 7 7 7 7 7 7 7 8 8 9 10 9 9 9 9 12 13 12 12 12 13 15 15 15 15 14
6 6 5 5 5 5 5 5 5 5 5 5 5 6 7 8 9 8 7 8 8 7 7 8 8 9 9 9 9 9 9 9 10 11 13 13 13 12 13 14 14 14 13
6 6 6 6 5 6 5 4 5 6 5 5 5 6 7 7 9 9 8 9 8 7 7 8 9 9 9 9 8 8 8 9 9 10 12 12 12 13 14 13 13 12 13
5 6 6 6 6 5 4 5 5 6 6 6 6 7 8 8 9 9 8 9 9 9 10 10 9 10 9 7 6 5 5 7 9 9 10 11 12 13 14 14 12 11 11
6 6 7 6 6 6 5 5 5 6 7 7 6 8 8 8 8 8 9 9 10 9 11 11 10 9 8 8 7 5 4 5 7 9 9 10 12 11 12 14 13 12 11
7 7 7 8 8 7 7 6 5 6 7 7 7 7 8 9 9 9 11 10 10 10 10 12 12 12 10 9 9 7 6 6 5 7 10 11 11 10 11 12 13 13 13
8 8 9 9 9 9 8 7 8 8 9 10 8 8 9 10 10 10 11 11 11 11 11 12 12 11 11 10 9 8 7 4 5 5 8 10 12 12 12 11 11 12 12
9 9 9 10 10 10 9 9 9 10 10 9 9 10 10 9 10 10 11 11 11 11 12 12 12 13 11 11 10 8 7 6 7 5 6 9 9 10 10 11 10 10 12
9 9 10 10 11 11 11 11 11 12 12 12 11 10 9 8 9 11 11 11 12 11 12 12 12 14 13 14 12 10 9 8 8 7 7 9 9 8 10 9 10 9 10
Wind_Direction
345 339 351 331 353 143 157 156 160 163 164 167 173 173 171 170 168 168 168 168 167 166 163 159 156 152 146 142 139 135 133 130 126 122 118 117 115 113 111 111 113 103 99
339 347 15 351 10 51 144 165 164 169 170 172 177 178 176 174 172 171 173 172 171 171 170 166 161 156 149 145 143 140 139 133 127 123 122 122 122 121 117 113 104 103 104
357 2 23 15 11 22 44 145 175 178 183 182 181 182 181 180 179 177 176 176 174 173 172 169 163 158 151 147 145 144 140 135 131 128 141 138 129 127 124 117 112 111 109
5 12 20 14 6 8 8 20 189 189 195 193 191 189 188 187 185 183 182 181 179 176 173 169 165 161 156 153 151 147 143 139 136 147 154 139 135 130 129 125 120 117 115
9 14 22 13 5 0 356 347 272 215 208 205 205 200 199 197 192 190 189 186 182 178 174 170 168 165 161 159 156 151 147 144 146 166 147 143 138 133 133 128 124 121 120
7 9 17 12 3 357 353 348 339 268 231 221 215 211 209 209 205 199 196 191 184 179 176 173 172 170 167 164 160 155 153 152 164 164 155 151 143 137 136 133 130 128 126
359 1 5 7 357 351 341 336 332 323 268 241 230 223 218 215 214 212 205 196 188 184 178 176 175 175 173 170 165 161 161 164 177 165 161 155 143 142 143 140 138 136 134
349 350 351 360 351 346 342 328 316 310 296 264 247 239 231 223 218 214 212 204 195 191 184 181 181 180 178 175 169 165 163 172 180 172 169 162 147 154 153 148 145 140 137
346 344 343 338 335 332 335 331 316 308 294 282 259 244 240 230 224 221 217 209 203 199 192 187 185 183 180 177 174 169 167 182 188 178 176 168 158 163 159 154 153 148 144
340 341 339 336 332 324 317 325 327 315 303 290 277 256 241 231 226 223 221 216 210 205 199 194 191 187 184 180 178 173 168 183 195 185 183 168 164 171 167 162 161 157 151
326 331 332 334 333 326 316 320 316 306 296 288 276 265 245 240 234 226 222 219 214 208 204 201 197 190 185 183 179 173 173 191 193 192 188 165 175 178 175 170 167 164 159
315 318 322 325 329 327 318 317 311 304 297 285 281 272 260 251 241 235 220 212 212 206 206 205 200 192 189 188 181 177 191 197 195 194 185 172 184 185 184 179 175 172 169
306 309 312 314 322 325 320 318 317 310 302 288 283 275 266 262 250 235 220 208 209 204 206 204 199 200 199 194 188 193 197 196 197 194 186 181 191 192 189 183 180 178 177
299 301 308 312 312 320 318 306 298 298 297 295 284 276 268 264 257 246 229 222 215 209 206 207 206 205 204 200 198 197 196 196 197 195 186 183 196 197 194 190 185 184 184
295 298 304 309 311 312 308 296 288 282 284 285 280 270 262 258 251 252 244 229 225 218 209 209 211 207 207 202 200 200 201 201 200 197 187 185 198 201 199 193 191 190 190
294 297 302 302 306 308 305 300 293 283 276 276 273 270 262 257 252 247 250 243 233 225 216 214 213 208 206 203 203 203 204 204 205 200 197 191 198 204 204 201 199 197 196
296 299 297 298 304 308 308 299 290 282 276 270 270 268 263 258 253 248 246 243 238 232 222 219 215 208 206 205 206 205 206 207 208 204 201 199 199 201 205 206 205 204 202
293 297 299 297 300 305 312 304 293 283 274 267 266 266 267 259 253 249 244 244 240 235 225 219 214 210 208 207 206 205 207 207 212 209 204 203 203 202 202 205 209 208 208
287 290 295 294 297 299 302 307 301 287 273 268 265 261 264 262 253 250 244 241 240 235 230 223 217 211 211 211 208 206 206 207 210 211 209 206 206 205 205 197 203 209 212
283 285 290 293 296 300 300 303 306 291 275 267 266 264 262 261 255 252 248 240 236 234 231 226 222 217 214 211 208 211 210 209 211 213 213 209 208 207 209 204 203 205 209
281 283 283 285 293 295 296 302 304 296 284 274 270 267 265 264 258 252 250 243 235 231 230 228 228 221 216 205 203 209 219 220 218 217 213 209 208 206 208 208 209 208 206
282 281 280 278 281 284 285 288 288 288 277 270 270 266 264 264 259 252 248 244 237 234 232 226 225 224 218 202 199 192 207 219 220 218 216 212 209 206 210 211 212 210 210
289 284 278 275 276 278 283 286 288 292 283 269 267 267 264 264 260 253 249 246 238 233 232 227 223 222 220 212 206 203 200 212 198 206 213 212 208 205 208 210 213 212 212
295 288 278 276 275 276 276 276 279 280 283 280 275 269 267 263 259 253 248 247 241 235 232 229 225 224 220 215 213 223 229 213 196 195 204 208 208 208 207 207 209 209 210
299 291 279 276 275 274 271 270 270 272 277 279 273 272 272 266 259 253 247 245 242 237 232 229 226 225 222 219 215 213 218 221 214 208 207 203 205 209 208 207 205 205 205
301 296 284 278 275 273 270 268 266 270 275 278 275 274 274 269 261 255 250 244 243 238 232 229 226 226 226 224 221 215 213 209 204 206 209 206 210 212 206 205 206 204 202
Height
1503 1502 1501 1501 1502 1502 1503 1504 1505 1505 1506 1507 1507 1508 1509 1510 1510 1511 1512 1512 1513 1513 1513 1514 1514 1514 1514 1514 1514 1515 1515 1515 1515 1515 1515 1515 1515 1515 1515 1515 1516 1516 1516
1503 1502 1501 1501 1502 1503 1503 1504 1505 1505 1506 1507 1507 1508 1509 1510 1510 1511 1511 1512 1512 1513 1513 1513 1514 1514 1514 1514 1514 1515 1515 1515 1515 1515 1515 1516 1515 1515 1516 1516 1516 1517 1516
1503 1502 1501 1501 1502 1503 1503 1504 1505 1505 1506 1506 1507 1508 1508 1509 1510 1510 1511 1511 1512 1512 1512 1513 1513 1513 1514 1514 1514 1515 1515 1515 1515 1515 1516 1517 1516 1516 1516 1516 1517 1517 1517
1503 1502 1502 1502 1502 1502 1503 1503 1504 1505 1505 1506 1506 1507 1508 1508 1509 1509 1510 1510 1511 1511 1512 1512 1512 1513 1513 1513 1514 1514 1515 1515 1515 1516 1517 1518 1517 1517 1517 1517 1517 1517 1517
1503 1502 1501 1501 1502 1502 1502 1503 1503 1504 1504 1505 1505 1506 1506 1507 1508 1508 1509 1509 1510 1510 1511 1511 1512 1512 1513 1513 1513 1514 1514 1515 1515 1516 1517 1517 1517 1517 1517 1517 1517 1518 1518
1502 1501 1501 1501 1501 1501 1501 1501 1502 1502 1502 1503 1503 1504 1505 1505 1506 1507 1507 1508 1508 1509 1510 1510 1511 1511 1512 1512 1513 1513 1514 1514 1515 1517 1517 1517 1517 1517 1517 1517 1518 1518 1518
1501 1500 1500 1499 1499 1500 1500 1500 1500 1500 1500 1501 1501 1502 1503 1503 1504 1504 1505 1506 1507 1507 1508 1509 1509 1510 1510 1511 1512 1512 1513 1514 1515 1516 1516 1517 1517 1517 1517 1517 1518 1518 1518
1499 1498 1498 1498 1498 1498 1498 1498 1498 1498 1498 1498 1499 1499 1500 1501 1501 1502 1503 1504 1505 1505 1506 1507 1508 1509 1509 1510 1510 1511 1512 1513 1514 1515 1516 1516 1516 1517 1517 1517 1518 1518 1518
1497 1496 1496 1496 1496 1496 1496 1496 1496 1496 1496 1496 1496 1497 1497 1498 1499 1499 1500 1501 1502 1503 1504 1505 1506 1506 1507 1508 1509 1509 1510 1512 1514 1514 1515 1515 1515 1516 1517 1517 1517 1518 1518
1495 1494 1494 1493 1493 1493 1493 1493 1493 1493 1493 1493 1493 1494 1494 1495 1496 1496 1497 1497 1499 1500 1501 1502 1503 1504 1505 1506 1507 1508 1509 1510 1512 1513 1513 1514 1514 1515 1516 1516 1517 1517 1517
1493 1492 1491 1490 1490 1489 1489 1489 1489 1490 1490 1490 1490 1490 1491 1492 1492 1493 1493 1494 1495 1497 1498 1499 1501 1502 1503 1504 1505 1506 1507 1508 1510 1511 1512 1512 1513 1514 1515 1515 1516 1516 1517
1490 1489 1488 1487 1487 1486 1486 1486 1486 1486 1486 1486 1487 1487 1487 1488 1488 1489 1489 1490 1492 1493 1494 1496 1497 1499 1500 1501 1502 1503 1505 1506 1508 1508 1509 1509 1511 1512 1513 1514 1514 1515 1516
1487 1485 1485 1484 1484 1483 1483 1482 1482 1482 1482 1483 1483 1483 1483 1484 1484 1485 1485 1486 1487 1489 1490 1492 1493 1495 1496 1498 1498 1500 1502 1503 1504 1505 1506 1507 1509 1510 1511 1512 1513 1513 1514
1484 1482 1482 1481 1480 1480 1479 1479 1479 1479 1479 1479 1479 1479 1480 1479 1480 1480 1481 1481 1483 1484 1485 1487 1489 1491 1492 1494 1495 1497 1498 1500 1501 1502 1503 1504 1506 1508 1509 1510 1511 1512 1513
1480 1479 1478 1477 1477 1476 1476 1476 1476 1475 1475 1475 1475 1475 1476 1475 1476 1476 1477 1477 1478 1480 1481 1482 1484 1486 1488 1489 1491 1492 1494 1496 1498 1499 1500 1501 1503 1505 1507 1508 1509 1510 1511
1477 1476 1475 1474 1473 1473 1472 1472 1471 1471 1470 1471 1471 1471 1471 1472 1471 1472 1472 1473 1474 1475 1476 1477 1479 1481 1483 1484 1486 1488 1490 1492 1494 1496 1497 1498 1500 1502 1504 1506 1507 1508 1509
1474 1473 1471 1471 1469 1469 1468 1468 1467 1467 1466 1466 1466 1466 1467 1467 1467 1467 1468 1468 1469 1470 1471 1472 1474 1476 1478 1480 1481 1483 1485 1487 1489 1491 1493 1495 1497 1499 1501 1502 1504 1505 1506
1470 1469 1468 1467 1466 1466 1465 1464 1463 1462 1462 1461 1461 1461 1462 1462 1462 1463 1463 1464 1464 1465 1466 1466 1468 1470 1472 1474 1476 1478 1480 1482 1484 1487 1489 1490 1493 1495 1497 1499 1500 1502 1503
1467 1465 1465 1464 1463 1462 1461 1460 1459 1458 1457 1457 1457 1456 1456 1457 1457 1457 1458 1458 1459 1460 1461 1462 1463 1464 1466 1469 1471 1473 1475 1477 1479 1481 1483 1486 1488 1490 1493 1495 1496 1498 1500
1463 1462 1461 1460 1459 1458 1457 1456 1455 1454 1453 1452 1451 1451 1451 1451 1452 1452 1452 1452 1453 1454 1455 1456 1458 1459 1461 1464 1466 1468 1470 1472 1474 1476 1478 1480 1483 1486 1488 1490 1492 1494 1496
1459 1458 1457 1456 1455 1454 1453 1452 1450 1449 1447 1446 1446 1446 1445 1446 1446 1446 1446 1446 1447 1448 1450 1451 1453 1454 1456 1459 1461 1463 1465 1466 1468 1470 1472 1475 1478 1480 1483 1486 1488 1490 1491
1455 1454 1453 1452 1451 1450 1449 1448 1446 1444 1442 1441 1440 1440 1440 1439 1439 1440 1440 1440 1441 1442 1444 1445 1447 1448 1450 1452 1455 1458 1460 1462 1462 1464 1467 1470 1472 1474 1477 1481 1483 1485 1487
1452 1450 1449 1448 1447 1446 1445 1443 1442 1440 1438 1437 1435 1434 1434 1433 1433 1433 1433 1434 1434 1435 1437 1438 1440 1443 1444 1446 1449 1452 1453 1454 1457 1459 1461 1463 1466 1469 1472 1475 1477 1480 1482
1448 1447 1445 1444 1443 1442 1440 1438 1437 1435 1433 1431 1430 1428 1427 1427 1426 1426 1426 1427 1428 1429 1430 1431 1434 1436 1439 1439 1442 1445 1447 1447 1450 1453 1456 1458 1460 1463 1466 1469 1472 1474 1476
1444 1443 1441 1440 1438 1437 1435 1433 1432 1430 1428 1426 1424 1422 1421 1420 1419 1419 1419 1419 1420 1422 1423 1424 1426 1429 1432 1433 1435 1437 1440 1442 1443 1446 1448 1452 1454 1457 1460 1463 1466 1469 1471
1440 1438 1436 1434 1433 1431 1430 1428 1426 1424 1422 1420 1418 1416 1414 1413 1412 1412 1412 1412 1413 1414 1415 1417 1419 1422 1425 1427 1429 1431 1433 1435 1437 1439 1442 1445 1448 1451 1454 1457 1460 1463 1465